Flag for United Kingdom Weather past 2 weeks in Swindon, England, United Kingdom

Now
46 °F

Low clouds.


Feels Like: 46 °F
Forecast: 45 / 56 °F
Wind: 2 mph from Southwest

Location: Brize Norton


UV Index: 0 (Low)

Visibility: N/A


Pressure: 30.09 "Hg

Humidity: 93%

Dew point: 45 °F

Location of SwindonLocation

Historic Weather in Swindon

°F

Swindon temperature yesterday

Maximum temperature yesterday: 57 °F (at 12:50 PM)
Minimum temperature yesterday: 46 °F (at 1:50 AM)
Average temperature yesterday: 51 °F

Past Weeks' High & Low Weather Summary

 TemperatureHumidityPressure
High63 °F (Apr 21, 12:50 PM)100% (Apr 10, 3:50 AM)30.42 "Hg (Apr 10, 3:50 AM)
Low36 °F (Apr 16, 5:50 AM)34% (Apr 16, 4:50 PM)29.59 "Hg (Apr 20, 4:50 PM)
Average49 °F72%30.08 "Hg
* Reported Apr 9 6:50 AM — Apr 24 6:50 AM, Swindon, Weather by CustomWeather, © 2014

Note: Actual official high and low records may vary slightly from our data, if they occured in-between our weather recording intervals... More about our weather records

Advertising

Historic Weather Conditions — Data for Previous 24 hours

 ConditionsComfort  
Time TempWeatherWind HumidityBarometerVisibility
6:50 AM
Apr 24
46 °FLow clouds.2 mph93%30.09 "HgN/A
5:50 AM46 °FLow clouds.2 mph93%30.09 "HgN/A
4:50 AM46 °FLow clouds.3 mph93%30.09 "HgN/A
3:50 AM46 °FFog.3 mph100%30.09 "Hg3 mi
2:50 AM45 °FFog.No wind100%30.09 "HgN/A
1:50 AM48 °FClear.1 mph94%30.09 "Hg10 mi
12:50 AM48 °FPassing clouds.1 mph100%30.09 "HgN/A
11:50 PM
Apr 23
48 °FClear.2 mph100%30.09 "Hg10 mi
10:50 PM48 °FClear.2 mph100%30.07 "Hg10 mi
9:50 PM50 °FClear.2 mph94%30.07 "Hg10 mi
8:50 PM50 °FSunny.2 mph94%30.07 "Hg10 mi
7:50 PM52 °FPartly sunny.2 mph82%30.04 "HgN/A
6:50 PM52 °FLight rain. Overcast.3 mph88%30.04 "HgN/A
5:50 PM54 °FRain. Broken clouds.5 mph94%30.04 "HgN/A
4:50 PM54 °FRain. Broken clouds.6 mph94%30.01 "HgN/A
3:50 PM55 °FLight rain. Partly sunny.8 mph77%30.01 "HgN/A
2:50 PM54 °FMostly cloudy.9 mph82%30.01 "HgN/A
1:50 PM57 °FPartly sunny.12 mph67%30.01 "HgN/A
12:50 PM57 °FLight rain. Broken clouds.7 mph72%30.01 "HgN/A
11:50 AM55 °FLight rain. Partly sunny.8 mph72%30.01 "HgN/A
10:50 AM55 °FLight rain. Partly sunny.12 mph67%30.01 "HgN/A
9:50 AM55 °FScattered clouds.8 mph72%30.01 "HgN/A
8:50 AM50 °FPartly sunny.6 mph94%30.01 "HgN/A
Weather by CustomWeather, © 2014

See weather overview